Time,TemperatureF,DewpointF,PressureIn,WindDirection,WindDirectionDegrees,WindSpeedMPH,WindSpeedGustMPH,Humidity,HourlyPrecipIn,Conditions,Clouds,dailyrainin,SolarRadiationWatts/m^2,SoftwareType,DateUTC
2013-03-11 00:22:00,13.0,7.0,-100.00,NW,326,14.0,20.0,76,0.00,,,0.00,0.000000,,2013-03-11 05:22:00,
2013-03-11 00:32:00,13.0,7.0,-100.00,NW,326,14.0,20.0,76,0.00,,,0.00,0.000000,,2013-03-11 05:32:00,
2013-03-11 00:42:00,13.0,7.0,-100.00,NW,326,14.0,20.0,76,0.00,,,0.00,0.000000,,2013-03-11 05:42:00,
2013-03-11 00:51:00,12.0,6.0,-100.00,NNW,329,15.0,20.0,77,0.00,,,0.00,0.000000,,2013-03-11 05:51:00,
2013-03-11 01:12:00,12.0,6.0,-100.00,NNW,329,15.0,20.0,77,0.00,,,0.00,0.000000,,2013-03-11 06:12:00,
2013-03-11 01:22:00,12.0,6.0,-100.00,NNW,329,15.0,20.0,77,0.00,,,0.00,0.000000,,2013-03-11 06:22:00,
2013-03-11 01:32:00,12.0,6.0,-100.00,NNW,329,15.0,20.0,77,0.00,,,0.00,0.000000,,2013-03-11 06:32:00,
2013-03-11 01:42:00,12.0,6.0,-100.00,NNW,329,15.0,20.0,77,0.00,,,0.00,0.000000,,2013-03-11 06:42:00,
2013-03-11 01:51:00,12.0,6.0,-100.00,NNW,328,14.0,20.0,77,0.00,,,0.00,0.000000,,2013-03-11 06:51:00,
2013-03-11 02:12:00,12.0,6.0,-100.00,NNW,328,14.0,20.0,77,0.00,,,0.00,0.000000,,2013-03-11 07:12:00,
2013-03-11 02:22:00,12.0,6.0,-100.00,NNW,328,14.0,20.0,77,0.00,,,0.00,0.000000,,2013-03-11 07:22:00,
2013-03-11 02:32:00,12.0,6.0,-100.00,NNW,328,14.0,20.0,77,0.00,,,0.00,0.000000,,2013-03-11 07:32:00,
2013-03-11 02:42:00,12.0,6.0,-100.00,NNW,328,14.0,20.0,77,0.00,,,0.00,0.000000,,2013-03-11 07:42:00,
2013-03-11 02:51:00,11.0,5.0,-100.00,NNW,342,14.0,20.0,77,0.00,,,0.00,0.000000,,2013-03-11 07:51:00,
2013-03-11 03:22:00,11.0,5.0,-100.00,NNW,342,14.0,20.0,77,0.00,,,0.00,0.000000,,2013-03-11 08:22:00,
2013-03-11 03:32:00,11.0,5.0,-100.00,NNW,342,14.0,20.0,77,0.00,,,0.00,0.000000,,2013-03-11 08:32:00,
2013-03-11 03:42:00,11.0,5.0,-100.00,NNW,342,14.0,20.0,77,0.00,,,0.00,0.000000,,2013-03-11 08:42:00,
2013-03-11 03:51:00,9.0,3.0,-100.00,NW,326,12.0,19.0,77,0.00,,,0.00,0.000000,,2013-03-11 08:51:00,
2013-03-11 04:12:00,9.0,3.0,-100.00,NW,326,12.0,19.0,77,0.00,,,0.00,0.000000,,2013-03-11 09:12:00,
2013-03-11 04:23:00,9.0,3.0,-100.00,NW,326,12.0,19.0,77,0.00,,,0.00,0.000000,,2013-03-11 09:23:00,
2013-03-11 04:32:00,9.0,3.0,-100.00,NW,326,12.0,19.0,77,0.00,,,0.00,0.000000,,2013-03-11 09:32:00,
2013-03-11 04:42:00,9.0,3.0,-100.00,NW,326,12.0,19.0,77,0.00,,,0.00,0.000000,,2013-03-11 09:42:00,
2013-03-11 04:51:00,7.0,2.0,-100.00,NNW,339,11.0,18.0,78,0.00,,,0.00,0.000000,,2013-03-11 09:51:00,
2013-03-11 05:12:00,7.0,2.0,-100.00,NNW,339,11.0,18.0,78,0.00,,,0.00,0.000000,,2013-03-11 10:12:00,
2013-03-11 05:22:00,7.0,2.0,-100.00,NNW,339,11.0,18.0,78,0.00,,,0.00,0.000000,,2013-03-11 10:22:00,
2013-03-11 05:32:00,7.0,2.0,-100.00,NNW,339,11.0,18.0,78,0.00,,,0.00,0.000000,,2013-03-11 10:32:00,
2013-03-11 05:42:00,7.0,2.0,-100.00,NNW,339,11.0,18.0,78,0.00,,,0.00,0.000000,,2013-03-11 10:42:00,
2013-03-11 05:51:00,6.0,1.0,-100.00,NW,324,11.0,17.0,78,0.00,,,0.00,0.000000,,2013-03-11 10:51:00,
2013-03-11 06:12:00,6.0,1.0,-100.00,NW,324,11.0,17.0,78,0.00,,,0.00,0.000000,,2013-03-11 11:12:00,
2013-03-11 06:22:00,6.0,1.0,-100.00,NW,324,11.0,17.0,78,0.00,,,0.00,0.000000,,2013-03-11 11:22:00,
2013-03-11 06:32:00,6.0,1.0,-100.00,NW,324,11.0,17.0,78,0.00,,,0.00,0.000000,,2013-03-11 11:32:00,
2013-03-11 06:42:00,6.0,1.0,-100.00,NW,324,11.0,17.0,78,0.00,,,0.00,0.000000,,2013-03-11 11:42:00,
2013-03-11 06:51:00,5.0,0.0,-100.00,NW,325,10.0,14.0,79,0.00,,,-99.99,0.000000,,2013-03-11 11:51:00,
2013-03-11 07:12:00,5.0,0.0,-100.00,NW,325,10.0,14.0,79,0.00,,,-99.99,0.000000,,2013-03-11 12:12:00,
2013-03-11 07:22:00,5.0,0.0,-100.00,NW,325,10.0,14.0,79,0.00,,,-99.99,0.000000,,2013-03-11 12:22:00,
2013-03-11 07:32:00,5.0,0.0,-100.00,NW,325,10.0,14.0,79,0.00,,,-99.99,0.000000,,2013-03-11 12:32:00,
2013-03-11 07:42:00,5.0,0.0,-100.00,NW,325,10.0,14.0,79,0.00,,,-99.99,0.000000,,2013-03-11 12:42:00,
2013-03-11 07:51:00,5.0,0.0,-100.00,NW,306,8.0,14.0,78,0.00,,,-99.99,1.000000,,2013-03-11 12:51:00,
2013-03-11 08:22:00,5.0,0.0,-100.00,NW,306,8.0,14.0,78,0.00,,,-99.99,1.000000,,2013-03-11 13:22:00,
2013-03-11 08:32:00,5.0,0.0,-100.00,NW,306,8.0,14.0,78,0.00,,,-99.99,1.000000,,2013-03-11 13:32:00,
2013-03-11 08:42:00,5.0,0.0,-100.00,NW,306,8.0,14.0,78,0.00,,,-99.99,1.000000,,2013-03-11 13:42:00,
2013-03-11 08:51:00,8.0,1.0,-100.00,WNW,299,5.0,11.0,72,0.00,,,0.00,76.000000,,2013-03-11 13:51:00,
2013-03-11 09:12:00,8.0,1.0,-100.00,WNW,299,5.0,11.0,72,0.00,,,0.00,76.000000,,2013-03-11 14:12:00,
2013-03-11 09:22:00,8.0,1.0,-100.00,WNW,299,5.0,11.0,72,0.00,,,0.00,76.000000,,2013-03-11 14:22:00,
2013-03-11 09:33:00,8.0,1.0,-100.00,WNW,299,5.0,11.0,72,0.00,,,0.00,76.000000,,2013-03-11 14:33:00,
2013-03-11 09:42:00,8.0,1.0,-100.00,WNW,299,5.0,11.0,72,0.00,,,0.00,76.000000,,2013-03-11 14:42:00,
2013-03-11 09:51:00,11.0,3.0,-100.00,WNW,286,6.0,11.0,69,0.00,,,0.00,283.000000,,2013-03-11 14:51:00,
2013-03-11 10:22:00,11.0,3.0,-100.00,WNW,286,6.0,11.0,69,0.00,,,0.00,283.000000,,2013-03-11 15:22:00,
2013-03-11 10:32:00,11.0,3.0,-100.00,WNW,286,6.0,11.0,69,0.00,,,0.00,283.000000,,2013-03-11 15:32:00,
2013-03-11 10:42:00,11.0,3.0,-100.00,WNW,286,6.0,11.0,69,0.00,,,0.00,283.000000,,2013-03-11 15:42:00,
2013-03-11 10:51:00,13.0,5.0,-100.00,NW,315,6.0,12.0,70,0.00,,,0.00,324.000000,,2013-03-11 15:51:00,
2013-03-11 11:12:00,13.0,5.0,-100.00,NW,315,6.0,12.0,70,0.00,,,0.00,324.000000,,2013-03-11 16:12:00,
2013-03-11 11:22:00,13.0,5.0,-100.00,NW,315,6.0,12.0,70,0.00,,,0.00,324.000000,,2013-03-11 16:22:00,
2013-03-11 11:32:00,13.0,5.0,-100.00,NW,315,6.0,12.0,70,0.00,,,0.00,324.000000,,2013-03-11 16:32:00,
2013-03-11 11:43:00,13.0,5.0,-100.00,NW,315,6.0,12.0,70,0.00,,,0.00,324.000000,,2013-03-11 16:43:00,
2013-03-11 11:51:00,17.0,7.0,-100.00,NNW,327,6.0,10.0,64,0.00,,,-99.99,449.000000,,2013-03-11 16:51:00,
2013-03-11 12:15:00,17.0,7.0,-100.00,NNW,327,6.0,10.0,64,0.00,,,-99.99,449.000000,,2013-03-11 17:15:00,
2013-03-11 12:26:00,17.0,7.0,-100.00,NNW,327,6.0,10.0,64,0.00,,,-99.99,449.000000,,2013-03-11 17:26:00,
2013-03-11 12:35:00,17.0,7.0,-100.00,NNW,327,6.0,10.0,64,0.00,,,-99.99,449.000000,,2013-03-11 17:35:00,
2013-03-11 12:42:00,17.0,7.0,-100.00,NNW,327,6.0,10.0,64,0.00,,,-99.99,449.000000,,2013-03-11 17:42:00,
2013-03-11 12:51:00,19.0,9.0,-100.00,NW,312,6.0,10.0,63,0.00,,,0.00,577.000000,,2013-03-11 17:51:00,
2013-03-11 13:12:00,19.0,9.0,-100.00,NW,312,6.0,10.0,63,0.00,,,0.00,577.000000,,2013-03-11 18:12:00,
2013-03-11 13:23:00,19.0,9.0,-100.00,NW,312,6.0,10.0,63,0.00,,,0.00,577.000000,,2013-03-11 18:23:00,
2013-03-11 13:32:00,19.0,9.0,-100.00,NW,312,6.0,10.0,63,0.00,,,0.00,577.000000,,2013-03-11 18:32:00,
2013-03-11 13:42:00,19.0,9.0,-100.00,NW,312,6.0,10.0,63,0.00,,,0.00,577.000000,,2013-03-11 18:42:00,
2013-03-11 13:51:00,21.0,10.0,-100.00,NW,312,10.0,12.0,62,0.00,,,0.00,608.000000,,2013-03-11 18:51:00,
2013-03-11 14:22:00,21.0,10.0,-100.00,NW,312,10.0,12.0,62,0.00,,,0.00,608.000000,,2013-03-11 19:22:00,
2013-03-11 14:33:00,21.0,10.0,-100.00,NW,312,10.0,12.0,62,0.00,,,0.00,608.000000,,2013-03-11 19:33:00,
2013-03-11 14:42:00,21.0,10.0,-100.00,NW,312,10.0,12.0,62,0.00,,,0.00,608.000000,,2013-03-11 19:42:00,
2013-03-11 14:51:00,23.0,12.0,-100.00,NW,314,10.0,14.0,61,0.00,,,0.00,743.000000,,2013-03-11 19:51:00,
2013-03-11 15:22:00,23.0,12.0,-100.00,NW,314,10.0,14.0,61,0.00,,,0.00,743.000000,,2013-03-11 20:22:00,
2013-03-11 15:32:00,23.0,12.0,-100.00,NW,314,10.0,14.0,61,0.00,,,0.00,743.000000,,2013-03-11 20:32:00,
2013-03-11 15:43:00,23.0,12.0,-100.00,NW,314,10.0,14.0,61,0.00,,,0.00,743.000000,,2013-03-11 20:43:00,
2013-03-11 15:51:00,24.0,14.0,-100.00,NW,321,8.0,14.0,64,0.00,,,0.00,530.000000,,2013-03-11 20:51:00,
2013-03-11 16:22:00,24.0,14.0,-100.00,NW,321,8.0,14.0,64,0.00,,,0.00,530.000000,,2013-03-11 21:22:00,
2013-03-11 16:32:00,24.0,14.0,-100.00,NW,321,8.0,14.0,64,0.00,,,0.00,530.000000,,2013-03-11 21:32:00,
2013-03-11 16:43:00,24.0,14.0,-100.00,NW,321,8.0,14.0,64,0.00,,,0.00,530.000000,,2013-03-11 21:43:00,
2013-03-11 16:51:00,25.0,13.0,-100.00,NW,307,6.0,10.0,60,0.00,,,0.00,529.000000,,2013-03-11 21:51:00,
2013-03-11 17:22:00,25.0,13.0,-100.00,NW,307,6.0,10.0,60,0.00,,,0.00,529.000000,,2013-03-11 22:22:00,
2013-03-11 17:32:00,25.0,13.0,-100.00,NW,307,6.0,10.0,60,0.00,,,0.00,529.000000,,2013-03-11 22:32:00,
2013-03-11 17:43:00,25.0,13.0,-100.00,NW,307,6.0,10.0,60,0.00,,,0.00,529.000000,,2013-03-11 22:43:00,
2013-03-11 17:51:00,24.0,14.0,-100.00,NW,317,6.0,11.0,66,0.00,,,0.00,316.000000,,2013-03-11 22:51:00,
2013-03-11 18:12:00,24.0,14.0,-100.00,NW,317,6.0,11.0,66,0.00,,,0.00,316.000000,,2013-03-11 23:12:00,
2013-03-11 18:22:00,24.0,14.0,-100.00,NW,317,6.0,11.0,66,0.00,,,0.00,316.000000,,2013-03-11 23:22:00,
2013-03-11 18:32:00,24.0,14.0,-100.00,NW,317,6.0,11.0,66,0.00,,,0.00,316.000000,,2013-03-11 23:32:00,
2013-03-11 18:43:00,24.0,14.0,-100.00,NW,317,6.0,11.0,66,0.00,,,0.00,316.000000,,2013-03-11 23:43:00,
2013-03-11 18:51:00,23.0,16.0,-100.00,NW,307,6.0,7.0,73,0.00,,,0.00,100.000000,,2013-03-11 23:51:00,
2013-03-11 19:12:00,23.0,16.0,-100.00,NW,307,6.0,7.0,73,0.00,,,0.00,100.000000,,2013-03-12 00:12:00,
2013-03-11 19:23:00,23.0,16.0,-100.00,NW,307,6.0,7.0,73,0.00,,,0.00,100.000000,,2013-03-12 00:23:00,
2013-03-11 19:33:00,23.0,16.0,-100.00,NW,307,6.0,7.0,73,0.00,,,0.00,100.000000,,2013-03-12 00:33:00,
2013-03-11 19:42:00,23.0,16.0,-100.00,NW,307,6.0,7.0,73,0.00,,,0.00,100.000000,,2013-03-12 00:42:00,
2013-03-11 19:51:00,23.0,17.0,-100.00,West,263,4.0,6.0,77,0.00,,,0.00,14.000000,,2013-03-12 00:51:00,
2013-03-11 20:22:00,23.0,17.0,-100.00,West,263,4.0,6.0,77,0.00,,,0.00,14.000000,,2013-03-12 01:22:00,
2013-03-11 20:33:00,23.0,17.0,-100.00,West,263,4.0,6.0,77,0.00,,,0.00,14.000000,,2013-03-12 01:33:00,
2013-03-11 20:42:00,23.0,17.0,-100.00,West,263,4.0,6.0,77,0.00,,,0.00,14.000000,,2013-03-12 01:42:00,
2013-03-11 20:51:00,23.0,19.0,-100.00,SW,227,4.0,7.0,84,0.00,,,0.00,0.000000,,2013-03-12 01:51:00,
2013-03-11 21:22:00,23.0,19.0,-100.00,SW,227,4.0,7.0,84,0.00,,,0.00,0.000000,,2013-03-12 02:22:00,
2013-03-11 21:32:00,23.0,19.0,-100.00,SW,227,4.0,7.0,84,0.00,,,0.00,0.000000,,2013-03-12 02:32:00,
2013-03-11 21:42:00,23.0,19.0,-100.00,SW,227,4.0,7.0,84,0.00,,,0.00,0.000000,,2013-03-12 02:42:00,
2013-03-11 21:51:00,24.0,20.0,-100.00,West,271,3.0,4.0,84,0.00,,,0.00,0.000000,,2013-03-12 02:51:00,
2013-03-11 22:12:00,24.0,20.0,-100.00,West,271,3.0,4.0,84,0.00,,,0.00,0.000000,,2013-03-12 03:12:00,
2013-03-11 22:22:00,24.0,20.0,-100.00,West,271,3.0,4.0,84,0.00,,,0.00,0.000000,,2013-03-12 03:22:00,
2013-03-11 22:32:00,24.0,20.0,-100.00,West,271,3.0,4.0,84,0.00,,,0.00,0.000000,,2013-03-12 03:32:00,
2013-03-11 22:42:00,24.0,20.0,-100.00,West,271,3.0,4.0,84,0.00,,,0.00,0.000000,,2013-03-12 03:42:00,
2013-03-11 22:51:00,28.0,23.0,-100.00,West,281,8.0,11.0,81,0.00,,,0.00,0.000000,,2013-03-12 03:51:00,
2013-03-11 23:13:00,28.0,23.0,-100.00,West,281,8.0,11.0,81,0.00,,,0.00,0.000000,,2013-03-12 04:13:00,
2013-03-11 23:22:00,28.0,23.0,-100.00,West,281,8.0,11.0,81,0.00,,,0.00,0.000000,,2013-03-12 04:22:00,
2013-03-11 23:32:00,28.0,23.0,-100.00,West,281,8.0,11.0,81,0.00,,,0.00,0.000000,,2013-03-12 04:32:00,
2013-03-11 23:43:00,28.0,23.0,-100.00,West,281,8.0,11.0,81,0.00,,,0.00,0.000000,,2013-03-12 04:43:00,
2013-03-11 23:51:00,29.0,24.0,-100.00,WNW,289,9.0,14.0,82,0.00,,,0.00,0.000000,,2013-03-12 04:51:00,